• In Latvia
  • List of Countries
  • For 7 days
  • Water Temperature
  • Satellite Maps
  • Weather Map
  • Weather Widgets
  • user-avatar
    Login

    Hourly Weather Bregenz

    Today, 22 November, Wednesday

    Time Temperature Precipitation Wind Pressure Humidity
    00:00 -1°C° 0 mm 2 mps 644 mmHg 78%
    01:00 -2°C° 0 mm 2 mps 644 mmHg 77%
    02:00 -2°C° 0 mm 2 mps 644 mmHg 76%
    03:00 -2°C° 0 mm 2 mps 644 mmHg 76%
    04:00 -2°C° 0 mm 2 mps 644 mmHg 75%
    05:00 -2°C° 0 mm 2 mps 644 mmHg 74%
    06:00 -2°C° 0 mm 2 mps 643 mmHg 74%
    07:00 -2°C° 0 mm 2 mps 643 mmHg 73%
    08:00 -1°C° 0 mm 2 mps 644 mmHg 73%
    09:00 +2°C° 0 mm 2 mps 644 mmHg 73%
    10:00 +3°C° 0 mm 2 mps 644 mmHg 74%
    11:00 +4°C° 0 mm 2 mps 644 mmHg 75%
    12:00 +5°C° 0 mm 2 mps 644 mmHg 76%
    13:00 +8°C° 0 mm 1 mps 644 mmHg 78%
    14:00 +7°C° 0 mm 1 mps 644 mmHg 78%
    15:00 +5°C° 0 mm 2 mps 644 mmHg 78%
    16:00 +4°C° 0 mm 2 mps 643 mmHg 79%
    17:00 +2°C° 0 mm 2 mps 643 mmHg 79%
    18:00 +1°C° 0 mm 2 mps 643 mmHg 78%
    19:00 -1°C° 0 mm 2 mps 643 mmHg 78%
    20:00 -1°C° 0 mm 3 mps 643 mmHg 78%
    21:00 -1°C° 0 mm 3 mps 643 mmHg 77%
    22:00 -1°C° 0 mm 3 mps 642 mmHg 77%
    23:00 -2°C° 0 mm 3 mps 642 mmHg 77%

    Tomorrow, 23 November, Thursday

    Time Temperature Precipitation Wind Pressure Humidity
    00:00 -2°C° 0 mm 3 mps 642 mmHg 77%
    01:00 -2°C° 0 mm 3 mps 642 mmHg 77%
    02:00 -2°C° 0 mm 3 mps 642 mmHg 77%
    03:00 -2°C° 0 mm 3 mps 642 mmHg 78%
    04:00 -2°C° 0 mm 3 mps 642 mmHg 78%
    05:00 -2°C° 0 mm 3 mps 642 mmHg 78%
    06:00 -4°C° 0 mm 3 mps 642 mmHg 78%
    07:00 -4°C° 0 mm 3 mps 643 mmHg 78%
    08:00 -1°C° 0 mm 3 mps 643 mmHg 77%
    09:00 0°C° 0 mm 3 mps 644 mmHg 76%
    10:00 +3°C° 0 mm 2 mps 644 mmHg 75%
    11:00 +4°C° 0 mm 2 mps 644 mmHg 75%
    12:00 +5°C° 0 mm 2 mps 645 mmHg 76%
    13:00 +6°C° 0 mm 2 mps 645 mmHg 76%
    14:00 +6°C° 0 mm 2 mps 645 mmHg 77%
    15:00 +5°C° 0 mm 2 mps 645 mmHg 79%
    16:00 +4°C° 0 mm 2 mps 645 mmHg 80%
    17:00 +3°C° 0 mm 2 mps 645 mmHg 80%
    18:00 +2°C° 0 mm 2 mps 645 mmHg 79%
    19:00 +1°C° 0 mm 2 mps 645 mmHg 79%
    20:00 +1°C° 0 mm 2 mps 645 mmHg 77%
    21:00 -1°C° 0 mm 2 mps 646 mmHg 76%
    22:00 -1°C° 0 mm 2 mps 646 mmHg 74%
    23:00 -1°C° 0 mm 2 mps 646 mmHg 73%

    Day after tomorrow, 24 November, Friday

    Time Temperature Precipitation Wind Pressure Humidity
    00:00 -1°C° 0 mm 2 mps 646 mmHg 73%
    01:00 -1°C° 0 mm 2 mps 646 mmHg 72%
    02:00 -1°C° 0 mm 2 mps 646 mmHg 72%
    03:00 -1°C° 0 mm 2 mps 646 mmHg 72%
    04:00 -1°C° 0 mm 2 mps 645 mmHg 72%
    05:00 -1°C° 0 mm 2 mps 645 mmHg 73%
    06:00 -1°C° 0 mm 2 mps 645 mmHg 73%
    07:00 -1°C° 0 mm 2 mps 645 mmHg 73%
    08:00 +1°C° 0 mm 2 mps 646 mmHg 73%
    09:00 +2°C° 0 mm 2 mps 646 mmHg 73%
    10:00 +3°C° 0 mm 2 mps 646 mmHg 72%
    11:00 +4°C° 0 mm 2 mps 646 mmHg 73%
    12:00 +5°C° 0 mm 2 mps 646 mmHg 73%
    13:00 +6°C° 0 mm 2 mps 646 mmHg 73%
    14:00 +5°C° 0 mm 2 mps 646 mmHg 75%
    15:00 +5°C° 0 mm 2 mps 645 mmHg 78%
    16:00 +4°C° 0 mm 2 mps 645 mmHg 80%
    17:00 +3°C° 0 mm 2 mps 645 mmHg 80%
    18:00 +1°C° 0 mm 3 mps 645 mmHg 80%
    19:00 0°C° 0 mm 3 mps 644 mmHg 80%
    20:00 0°C° 0 mm 3 mps 644 mmHg 80%
    21:00 0°C° 0 mm 3 mps 644 mmHg 80%
    22:00 0°C° 0 mm 3 mps 644 mmHg 79%
    23:00 0°C° 0 mm 3 mps 644 mmHg 79%

    25 November, Saturday

    Time Temperature Precipitation Wind Pressure Humidity
    00:00 0°C° 0 mm 3 mps 643 mmHg 80%
    01:00 +1°C° 0 mm 3 mps 643 mmHg 80%
    02:00 +1°C° 0 mm 3 mps 643 mmHg 80%
    03:00 +1°C° 0 mm 3 mps 642 mmHg 81%
    04:00 +1°C° 0 mm 3 mps 641 mmHg 81%
    05:00 +1°C° 0 mm 3 mps 641 mmHg 81%
    06:00 +1°C° 0 mm 3 mps 641 mmHg 81%
    07:00 +1°C° 0 mm 3 mps 640 mmHg 81%
    08:00 +2°C° 0.3 mm 3 mps 641 mmHg 83%
    09:00 +2°C° 0.3 mm 3 mps 641 mmHg 84%
    10:00 +3°C° 0.3 mm 3 mps 642 mmHg 85%
    11:00 +1°C° 1.6 mm 4 mps 642 mmHg 88%
    12:00 0°C° 1.6 mm 4 mps 642 mmHg 91%
    13:00 -1°C° 1.6 mm 4 mps 642 mmHg 93%
    14:00 -1°C° 1.5 mm 4 mps 643 mmHg 93%
    15:00 -1°C° 1.5 mm 3 mps 643 mmHg 93%
    16:00 -1°C° 1.5 mm 3 mps 643 mmHg 93%
    17:00 -2°C° 0.6 mm 3 mps 643 mmHg 94%
    18:00 -2°C° 0.6 mm 2 mps 644 mmHg 94%
    19:00 -3°C° 0.6 mm 2 mps 644 mmHg 95%
    20:00 -3°C° 0.2 mm 2 mps 644 mmHg 95%
    21:00 -4°C° 0.2 mm 2 mps 644 mmHg 95%
    22:00 -4°C° 0.2 mm 2 mps 644 mmHg 95%
    23:00 -4°C° 0.1 mm 2 mps 644 mmHg 95%

    26 November, Sunday

    Time Temperature Precipitation Wind Pressure Humidity
    00:00 -5°C° 0.1 mm 2 mps 644 mmHg 95%
    01:00 -5°C° 0.1 mm 2 mps 644 mmHg 95%
    02:00 -5°C° 0.1 mm 2 mps 644 mmHg 95%
    03:00 -5°C° 0.1 mm 2 mps 645 mmHg 95%
    04:00 -5°C° 0.1 mm 2 mps 645 mmHg 95%
    05:00 -6°C° 0 mm 2 mps 645 mmHg 95%
    06:00 -6°C° 0 mm 2 mps 645 mmHg 95%
    07:00 -7°C° 0 mm 2 mps 645 mmHg 95%
    08:00 -6°C° 0 mm 2 mps 645 mmHg 92%
    09:00 -5°C° 0 mm 2 mps 646 mmHg 88%
    10:00 -6°C° 0 mm 3 mps 646 mmHg 85%
    11:00 -5°C° 0 mm 3 mps 646 mmHg 82%
    12:00 -5°C° 0 mm 3 mps 646 mmHg 79%
    13:00 -4°C° 0 mm 3 mps 646 mmHg 75%
    14:00 -5°C° 0 mm 3 mps 646 mmHg 78%
    15:00 -5°C° 0 mm 2 mps 646 mmHg 81%
    16:00 -5°C° 0 mm 2 mps 646 mmHg 84%
    17:00 -6°C° 0 mm 2 mps 646 mmHg 86%
    18:00 -8°C° 0 mm 2 mps 646 mmHg 87%
    19:00 -9°C° 0 mm 2 mps 646 mmHg 89%
    20:00 -9°C° 0 mm 2 mps 647 mmHg 88%
    21:00 -9°C° 0 mm 2 mps 647 mmHg 87%
    22:00 -9°C° 0 mm 2 mps 647 mmHg 86%
    23:00 -9°C° 0 mm 2 mps 647 mmHg 85%

    27 November, Monday

    Time Temperature Precipitation Wind Pressure Humidity
    00:00 -9°C° 0 mm 2 mps 647 mmHg 84%
    01:00 -9°C° 0 mm 2 mps 647 mmHg 83%
    02:00 -9°C° 0 mm 2 mps 647 mmHg 82%
    03:00 -9°C° 0 mm 2 mps 647 mmHg 81%
    04:00 -10°C° 0 mm 3 mps 647 mmHg 80%
    05:00 -9°C° 0 mm 2 mps 648 mmHg 79%
    06:00 -9°C° 0 mm 2 mps 648 mmHg 78%
    07:00 -9°C° 0 mm 2 mps 648 mmHg 78%
    08:00 -8°C° 0 mm 2 mps 648 mmHg 75%
    09:00 -7°C° 0 mm 2 mps 649 mmHg 72%
    10:00 -5°C° 0 mm 2 mps 649 mmHg 70%
    11:00 -4°C° 0 mm 2 mps 649 mmHg 66%
    12:00 -3°C° 0 mm 2 mps 649 mmHg 63%
    13:00 0°C° 0 mm 1 mps 648 mmHg 60%
    14:00 -1°C° 0 mm 1 mps 648 mmHg 64%
    15:00 -2°C° 0 mm 1 mps 647 mmHg 67%
    16:00 -2°C° 0 mm 1 mps 647 mmHg 71%
    17:00 -3°C° 0 mm 1 mps 646 mmHg 71%
    18:00 -4°C° 0 mm 1 mps 646 mmHg 71%
    19:00 -7°C° 0 mm 2 mps 646 mmHg 72%
    20:00 -7°C° 0 mm 2 mps 645 mmHg 71%
    21:00 -7°C° 0 mm 2 mps 645 mmHg 70%
    22:00 -7°C° 0 mm 2 mps 645 mmHg 69%
    23:00 -7°C° 0 mm 2 mps 644 mmHg 68%
    Show more